Index of /20260430/WXO-DD/model_rdps/10km/12/001
Name Last modified Size Description
Parent Directory -
20260430T12Z_MSC_RDPS_AbsoluteVorticity_IsbL-0250_RLatLon0.09_PT001H.grib2 2026-04-30 14:40 604K
20260430T12Z_MSC_RDPS_AbsoluteVorticity_IsbL-0500_RLatLon0.09_PT001H.grib2 2026-04-30 14:40 555K
20260430T12Z_MSC_RDPS_AbsoluteVorticity_IsbL-0700_RLatLon0.09_PT001H.grib2 2026-04-30 14:40 612K
20260430T12Z_MSC_RDPS_AbsoluteVorticity_IsbL-0850_RLatLon0.09_PT001H.grib2 2026-04-30 14:40 765K
20260430T12Z_MSC_RDPS_AirTemp_AGL-120m_RLatLon0.09_PT001H.grib2 2026-04-30 14:40 393K
20260430T12Z_MSC_RDPS_AirTemp_AGL-2m_RLatLon0.09_PT001H.grib2 2026-04-30 14:40 622K
20260430T12Z_MSC_RDPS_AirTemp_AGL-40m_RLatLon0.09_PT001H.grib2 2026-04-30 14:40 406K
20260430T12Z_MSC_RDPS_AirTemp_AGL-80m_RLatLon0.09_PT001H.grib2 2026-04-30 14:40 400K
20260430T12Z_MSC_RDPS_AirTemp_IsbL-0001_RLatLon0.09_PT001H.grib2 2026-04-30 14:40 304K
20260430T12Z_MSC_RDPS_AirTemp_IsbL-0005_RLatLon0.09_PT001H.grib2 2026-04-30 14:40 275K
20260430T12Z_MSC_RDPS_AirTemp_IsbL-0010_RLatLon0.09_PT001H.grib2 2026-04-30 14:40 283K
20260430T12Z_MSC_RDPS_AirTemp_IsbL-0020_RLatLon0.09_PT001H.grib2 2026-04-30 14:40 294K
20260430T12Z_MSC_RDPS_AirTemp_IsbL-0030_RLatLon0.09_PT001H.grib2 2026-04-30 14:40 315K
20260430T12Z_MSC_RDPS_AirTemp_IsbL-0050_RLatLon0.09_PT001H.grib2 2026-04-30 14:40 294K
20260430T12Z_MSC_RDPS_AirTemp_IsbL-0100_RLatLon0.09_PT001H.grib2 2026-04-30 14:40 404K
20260430T12Z_MSC_RDPS_AirTemp_IsbL-0150_RLatLon0.09_PT001H.grib2 2026-04-30 14:40 408K
20260430T12Z_MSC_RDPS_AirTemp_IsbL-0175_RLatLon0.09_PT001H.grib2 2026-04-30 14:40 399K
20260430T12Z_MSC_RDPS_AirTemp_IsbL-0200_RLatLon0.09_PT001H.grib2 2026-04-30 14:40 404K
20260430T12Z_MSC_RDPS_AirTemp_IsbL-0225_RLatLon0.09_PT001H.grib2 2026-04-30 14:40 407K
20260430T12Z_MSC_RDPS_AirTemp_IsbL-0250_RLatLon0.09_PT001H.grib2 2026-04-30 14:40 418K
20260430T12Z_MSC_RDPS_AirTemp_IsbL-0275_RLatLon0.09_PT001H.grib2 2026-04-30 14:40 399K
20260430T12Z_MSC_RDPS_AirTemp_IsbL-0300_RLatLon0.09_PT001H.grib2 2026-04-30 14:40 404K
20260430T12Z_MSC_RDPS_AirTemp_IsbL-0350_RLatLon0.09_PT001H.grib2 2026-04-30 14:40 420K
20260430T12Z_MSC_RDPS_AirTemp_IsbL-0400_RLatLon0.09_PT001H.grib2 2026-04-30 14:40 421K
20260430T12Z_MSC_RDPS_AirTemp_IsbL-0450_RLatLon0.09_PT001H.grib2 2026-04-30 14:40 428K
20260430T12Z_MSC_RDPS_AirTemp_IsbL-0500_RLatLon0.09_PT001H.grib2 2026-04-30 14:40 402K
20260430T12Z_MSC_RDPS_AirTemp_IsbL-0550_RLatLon0.09_PT001H.grib2 2026-04-30 14:40 419K
20260430T12Z_MSC_RDPS_AirTemp_IsbL-0600_RLatLon0.09_PT001H.grib2 2026-04-30 14:40 439K
20260430T12Z_MSC_RDPS_AirTemp_IsbL-0650_RLatLon0.09_PT001H.grib2 2026-04-30 14:40 455K
20260430T12Z_MSC_RDPS_AirTemp_IsbL-0700_RLatLon0.09_PT001H.grib2 2026-04-30 14:40 478K
20260430T12Z_MSC_RDPS_AirTemp_IsbL-0750_RLatLon0.09_PT001H.grib2 2026-04-30 14:40 401K
20260430T12Z_MSC_RDPS_AirTemp_IsbL-0800_RLatLon0.09_PT001H.grib2 2026-04-30 14:40 443K
20260430T12Z_MSC_RDPS_AirTemp_IsbL-0850_RLatLon0.09_PT001H.grib2 2026-04-30 14:40 494K
20260430T12Z_MSC_RDPS_AirTemp_IsbL-0875_RLatLon0.09_PT001H.grib2 2026-04-30 14:40 511K
20260430T12Z_MSC_RDPS_AirTemp_IsbL-0900_RLatLon0.09_PT001H.grib2 2026-04-30 14:40 520K
20260430T12Z_MSC_RDPS_AirTemp_IsbL-0925_RLatLon0.09_PT001H.grib2 2026-04-30 14:40 519K
20260430T12Z_MSC_RDPS_AirTemp_IsbL-0950_RLatLon0.09_PT001H.grib2 2026-04-30 14:40 522K
20260430T12Z_MSC_RDPS_AirTemp_IsbL-0970_RLatLon0.09_PT001H.grib2 2026-04-30 14:40 515K
20260430T12Z_MSC_RDPS_AirTemp_IsbL-0985_RLatLon0.09_PT001H.grib2 2026-04-30 14:40 501K
20260430T12Z_MSC_RDPS_AirTemp_IsbL-1000_RLatLon0.09_PT001H.grib2 2026-04-30 14:40 483K
20260430T12Z_MSC_RDPS_AirTemp_IsbL-1015_RLatLon0.09_PT001H.grib2 2026-04-30 14:40 481K
20260430T12Z_MSC_RDPS_Albedo_Sfc_RLatLon0.09_PT001H.grib2 2026-04-30 14:40 156K
20260430T12Z_MSC_RDPS_CAPE_Sfc_RLatLon0.09_PT001H.grib2 2026-04-30 14:40 1.6M
20260430T12Z_MSC_RDPS_CIN_Sfc_RLatLon0.09_PT001H.grib2 2026-04-30 14:40 1.1M
20260430T12Z_MSC_RDPS_CloudWater_EAtm_RLatLon0.09_PT001H.grib2 2026-04-30 14:40 214K
20260430T12Z_MSC_RDPS_ConvectivePrecip-Accum_Sfc_RLatLon0.09_PT001H.grib2 2026-04-30 14:40 277K
20260430T12Z_MSC_RDPS_DewPointDepression_AGL-2m_RLatLon0.09_PT001H.grib2 2026-04-30 14:40 395K
20260430T12Z_MSC_RDPS_DewPointDepression_IsbL-0001_RLatLon0.09_PT001H.grib2 2026-04-30 14:40 193
20260430T12Z_MSC_RDPS_DewPointDepression_IsbL-0005_RLatLon0.09_PT001H.grib2 2026-04-30 14:40 193
20260430T12Z_MSC_RDPS_DewPointDepression_IsbL-0010_RLatLon0.09_PT001H.grib2 2026-04-30 14:40 193
20260430T12Z_MSC_RDPS_DewPointDepression_IsbL-0020_RLatLon0.09_PT001H.grib2 2026-04-30 14:40 193
20260430T12Z_MSC_RDPS_DewPointDepression_IsbL-0030_RLatLon0.09_PT001H.grib2 2026-04-30 14:40 193
20260430T12Z_MSC_RDPS_DewPointDepression_IsbL-0050_RLatLon0.09_PT001H.grib2 2026-04-30 14:40 81K
20260430T12Z_MSC_RDPS_DewPointDepression_IsbL-0100_RLatLon0.09_PT001H.grib2 2026-04-30 14:40 128K
20260430T12Z_MSC_RDPS_DewPointDepression_IsbL-0150_RLatLon0.09_PT001H.grib2 2026-04-30 14:40 147K
20260430T12Z_MSC_RDPS_DewPointDepression_IsbL-0175_RLatLon0.09_PT001H.grib2 2026-04-30 14:40 178K
20260430T12Z_MSC_RDPS_DewPointDepression_IsbL-0200_RLatLon0.09_PT001H.grib2 2026-04-30 14:40 219K
20260430T12Z_MSC_RDPS_DewPointDepression_IsbL-0225_RLatLon0.09_PT001H.grib2 2026-04-30 14:40 263K
20260430T12Z_MSC_RDPS_DewPointDepression_IsbL-0250_RLatLon0.09_PT001H.grib2 2026-04-30 14:40 298K
20260430T12Z_MSC_RDPS_DewPointDepression_IsbL-0275_RLatLon0.09_PT001H.grib2 2026-04-30 14:40 302K
20260430T12Z_MSC_RDPS_DewPointDepression_IsbL-0300_RLatLon0.09_PT001H.grib2 2026-04-30 14:40 320K
20260430T12Z_MSC_RDPS_DewPointDepression_IsbL-0350_RLatLon0.09_PT001H.grib2 2026-04-30 14:40 325K
20260430T12Z_MSC_RDPS_DewPointDepression_IsbL-0400_RLatLon0.09_PT001H.grib2 2026-04-30 14:40 333K
20260430T12Z_MSC_RDPS_DewPointDepression_IsbL-0450_RLatLon0.09_PT001H.grib2 2026-04-30 14:40 338K
20260430T12Z_MSC_RDPS_DewPointDepression_IsbL-0500_RLatLon0.09_PT001H.grib2 2026-04-30 14:40 339K
20260430T12Z_MSC_RDPS_DewPointDepression_IsbL-0550_RLatLon0.09_PT001H.grib2 2026-04-30 14:40 346K
20260430T12Z_MSC_RDPS_DewPointDepression_IsbL-0600_RLatLon0.09_PT001H.grib2 2026-04-30 14:40 362K
20260430T12Z_MSC_RDPS_DewPointDepression_IsbL-0650_RLatLon0.09_PT001H.grib2 2026-04-30 14:40 368K
20260430T12Z_MSC_RDPS_DewPointDepression_IsbL-0700_RLatLon0.09_PT001H.grib2 2026-04-30 14:40 375K
20260430T12Z_MSC_RDPS_DewPointDepression_IsbL-0750_RLatLon0.09_PT001H.grib2 2026-04-30 14:40 393K
20260430T12Z_MSC_RDPS_DewPointDepression_IsbL-0800_RLatLon0.09_PT001H.grib2 2026-04-30 14:40 422K
20260430T12Z_MSC_RDPS_DewPointDepression_IsbL-0850_RLatLon0.09_PT001H.grib2 2026-04-30 14:40 453K
20260430T12Z_MSC_RDPS_DewPointDepression_IsbL-0875_RLatLon0.09_PT001H.grib2 2026-04-30 14:40 454K
20260430T12Z_MSC_RDPS_DewPointDepression_IsbL-0900_RLatLon0.09_PT001H.grib2 2026-04-30 14:40 447K
20260430T12Z_MSC_RDPS_DewPointDepression_IsbL-0925_RLatLon0.09_PT001H.grib2 2026-04-30 14:40 438K
20260430T12Z_MSC_RDPS_DewPointDepression_IsbL-0950_RLatLon0.09_PT001H.grib2 2026-04-30 14:40 436K
20260430T12Z_MSC_RDPS_DewPointDepression_IsbL-0970_RLatLon0.09_PT001H.grib2 2026-04-30 14:40 430K
20260430T12Z_MSC_RDPS_DewPointDepression_IsbL-0985_RLatLon0.09_PT001H.grib2 2026-04-30 14:40 422K
20260430T12Z_MSC_RDPS_DewPointDepression_IsbL-1000_RLatLon0.09_PT001H.grib2 2026-04-30 14:40 416K
20260430T12Z_MSC_RDPS_DewPointDepression_IsbL-1015_RLatLon0.09_PT001H.grib2 2026-04-30 14:40 407K
20260430T12Z_MSC_RDPS_DewPoint_AGL-2m_RLatLon0.09_PT001H.grib2 2026-04-30 14:40 386K
20260430T12Z_MSC_RDPS_DownwardLongwaveRadiationFlux-Accum_Sfc_RLatLon0.09_PT001H.grib2 2026-04-30 14:40 543K
20260430T12Z_MSC_RDPS_DownwardShortwaveRadiationFlux-Accum_NTAtm_RLatLon0.09_PT001H.grib2 2026-04-30 14:40 57K
20260430T12Z_MSC_RDPS_DownwardShortwaveRadiationFlux-Accum_Sfc_RLatLon0.09_PT001H.grib2 2026-04-30 14:40 404K
20260430T12Z_MSC_RDPS_FreezingRain-Accum1h_Sfc_RLatLon0.09_PT001H.grib2 2026-04-30 14:40 35K
20260430T12Z_MSC_RDPS_FreezingRain-Accum_Sfc_RLatLon0.09_PT001H.grib2 2026-04-30 14:40 40K
20260430T12Z_MSC_RDPS_GeopotentialHeight_IsbL-0001_RLatLon0.09_PT001H.grib2 2026-04-30 14:40 313K
20260430T12Z_MSC_RDPS_GeopotentialHeight_IsbL-0005_RLatLon0.09_PT001H.grib2 2026-04-30 14:40 301K
20260430T12Z_MSC_RDPS_GeopotentialHeight_IsbL-0010_RLatLon0.09_PT001H.grib2 2026-04-30 14:40 302K
20260430T12Z_MSC_RDPS_GeopotentialHeight_IsbL-0020_RLatLon0.09_PT001H.grib2 2026-04-30 14:40 301K
20260430T12Z_MSC_RDPS_GeopotentialHeight_IsbL-0030_RLatLon0.09_PT001H.grib2 2026-04-30 14:40 301K
20260430T12Z_MSC_RDPS_GeopotentialHeight_IsbL-0050_RLatLon0.09_PT001H.grib2 2026-04-30 14:40 303K
20260430T12Z_MSC_RDPS_GeopotentialHeight_IsbL-0100_RLatLon0.09_PT001H.grib2 2026-04-30 14:40 282K
20260430T12Z_MSC_RDPS_GeopotentialHeight_IsbL-0150_RLatLon0.09_PT001H.grib2 2026-04-30 14:40 227K
20260430T12Z_MSC_RDPS_GeopotentialHeight_IsbL-0175_RLatLon0.09_PT001H.grib2 2026-04-30 14:40 230K
20260430T12Z_MSC_RDPS_GeopotentialHeight_IsbL-0200_RLatLon0.09_PT001H.grib2 2026-04-30 14:40 263K
20260430T12Z_MSC_RDPS_GeopotentialHeight_IsbL-0225_RLatLon0.09_PT001H.grib2 2026-04-30 14:40 266K
20260430T12Z_MSC_RDPS_GeopotentialHeight_IsbL-0250_RLatLon0.09_PT001H.grib2 2026-04-30 14:40 267K
20260430T12Z_MSC_RDPS_GeopotentialHeight_IsbL-0275_RLatLon0.09_PT001H.grib2 2026-04-30 14:40 266K
20260430T12Z_MSC_RDPS_GeopotentialHeight_IsbL-0300_RLatLon0.09_PT001H.grib2 2026-04-30 14:40 266K
20260430T12Z_MSC_RDPS_GeopotentialHeight_IsbL-0350_RLatLon0.09_PT001H.grib2 2026-04-30 14:40 232K
20260430T12Z_MSC_RDPS_GeopotentialHeight_IsbL-0400_RLatLon0.09_PT001H.grib2 2026-04-30 14:40 229K
20260430T12Z_MSC_RDPS_GeopotentialHeight_IsbL-0450_RLatLon0.09_PT001H.grib2 2026-04-30 14:40 297K
20260430T12Z_MSC_RDPS_GeopotentialHeight_IsbL-0500_RLatLon0.09_PT001H.grib2 2026-04-30 14:40 291K
20260430T12Z_MSC_RDPS_GeopotentialHeight_IsbL-0550_RLatLon0.09_PT001H.grib2 2026-04-30 14:40 286K
20260430T12Z_MSC_RDPS_GeopotentialHeight_IsbL-0600_RLatLon0.09_PT001H.grib2 2026-04-30 14:40 281K
20260430T12Z_MSC_RDPS_GeopotentialHeight_IsbL-0650_RLatLon0.09_PT001H.grib2 2026-04-30 14:40 252K
20260430T12Z_MSC_RDPS_GeopotentialHeight_IsbL-0700_RLatLon0.09_PT001H.grib2 2026-04-30 14:40 331K
20260430T12Z_MSC_RDPS_GeopotentialHeight_IsbL-0750_RLatLon0.09_PT001H.grib2 2026-04-30 14:40 334K
20260430T12Z_MSC_RDPS_GeopotentialHeight_IsbL-0800_RLatLon0.09_PT001H.grib2 2026-04-30 14:40 341K
20260430T12Z_MSC_RDPS_GeopotentialHeight_IsbL-0850_RLatLon0.09_PT001H.grib2 2026-04-30 14:40 382K
20260430T12Z_MSC_RDPS_GeopotentialHeight_IsbL-0875_RLatLon0.09_PT001H.grib2 2026-04-30 14:40 385K
20260430T12Z_MSC_RDPS_GeopotentialHeight_IsbL-0900_RLatLon0.09_PT001H.grib2 2026-04-30 14:40 388K
20260430T12Z_MSC_RDPS_GeopotentialHeight_IsbL-0925_RLatLon0.09_PT001H.grib2 2026-04-30 14:40 392K
20260430T12Z_MSC_RDPS_GeopotentialHeight_IsbL-0950_RLatLon0.09_PT001H.grib2 2026-04-30 14:40 397K
20260430T12Z_MSC_RDPS_GeopotentialHeight_IsbL-0970_RLatLon0.09_PT001H.grib2 2026-04-30 14:40 403K
20260430T12Z_MSC_RDPS_GeopotentialHeight_IsbL-0985_RLatLon0.09_PT001H.grib2 2026-04-30 14:40 412K
20260430T12Z_MSC_RDPS_GeopotentialHeight_IsbL-1000_RLatLon0.09_PT001H.grib2 2026-04-30 14:40 424K
20260430T12Z_MSC_RDPS_GeopotentialHeight_IsbL-1015_RLatLon0.09_PT001H.grib2 2026-04-30 14:40 440K
20260430T12Z_MSC_RDPS_Humidex_Sfc_RLatLon0.09_PT001H.grib2 2026-04-30 14:40 2.4M
20260430T12Z_MSC_RDPS_IcePellets-Accum1h_Sfc_RLatLon0.09_PT001H.grib2 2026-04-30 14:40 2.4K
20260430T12Z_MSC_RDPS_IcePellets-Accum_Sfc_RLatLon0.09_PT001H.grib2 2026-04-30 14:40 2.4K
20260430T12Z_MSC_RDPS_KIndex_Sfc_RLatLon0.09_PT001H.grib2 2026-04-30 14:40 2.4M
20260430T12Z_MSC_RDPS_LatentHeatNetFlux_Sfc_RLatLon0.09_PT001H.grib2 2026-04-30 14:40 420K
20260430T12Z_MSC_RDPS_LiftedIndex-MU-VT_IsbL-0500_RLatLon0.09_PT001H.grib2 2026-04-30 14:40 2.4M
20260430T12Z_MSC_RDPS_NetLongwaveRadiationFlux-Accum_Sfc_RLatLon0.09_PT001H.grib2 2026-04-30 14:40 686K
20260430T12Z_MSC_RDPS_NetShortwaveRadiationFlux-Accum_Sfc_RLatLon0.09_PT001H.grib2 2026-04-30 14:40 390K
20260430T12Z_MSC_RDPS_PlanetaryBoundaryLayerHeight_Sfc_RLatLon0.09_PT001H.grib2 2026-04-30 14:40 1.1M
20260430T12Z_MSC_RDPS_Precip-Accum1h_Sfc_RLatLon0.09_PT001H.grib2 2026-04-30 14:40 1.1M
20260430T12Z_MSC_RDPS_Precip-Accum_Sfc_RLatLon0.09_PT001H.grib2 2026-04-30 14:40 1.1M
20260430T12Z_MSC_RDPS_PrecipRate_Sfc_RLatLon0.09_PT001H.grib2 2026-04-30 14:40 164K
20260430T12Z_MSC_RDPS_PrecipType-Instant_Sfc_RLatLon0.09_PT001H.grib2 2026-04-30 14:40 565K
20260430T12Z_MSC_RDPS_Pressure_MSL_RLatLon0.09_PT001H.grib2 2026-04-30 14:40 290K
20260430T12Z_MSC_RDPS_Pressure_PVU-1.5_RLatLon0.09_PT001H.grib2 2026-04-30 14:40 2.3M
20260430T12Z_MSC_RDPS_Pressure_PVU-1_RLatLon0.09_PT001H.grib2 2026-04-30 14:40 2.4M
20260430T12Z_MSC_RDPS_Pressure_PVU-2_RLatLon0.09_PT001H.grib2 2026-04-30 14:40 2.2M
20260430T12Z_MSC_RDPS_Pressure_Sfc_RLatLon0.09_PT001H.grib2 2026-04-30 14:40 500K
20260430T12Z_MSC_RDPS_RadiativeTemp_Sfc_RLatLon0.09_PT001H.grib2 2026-04-30 14:40 298K
20260430T12Z_MSC_RDPS_Rain-Accum1h_Sfc_RLatLon0.09_PT001H.grib2 2026-04-30 14:40 508K
20260430T12Z_MSC_RDPS_Rain-Accum_Sfc_RLatLon0.09_PT001H.grib2 2026-04-30 14:40 792K
20260430T12Z_MSC_RDPS_RelativeHumidity_AGL-2m_RLatLon0.09_PT001H.grib2 2026-04-30 14:40 1.0M
20260430T12Z_MSC_RDPS_RelativeHumidity_IsbL-0010_RLatLon0.09_PT001H.grib2 2026-04-30 14:40 637K
20260430T12Z_MSC_RDPS_RelativeHumidity_IsbL-0020_RLatLon0.09_PT001H.grib2 2026-04-30 14:40 678K
20260430T12Z_MSC_RDPS_RelativeHumidity_IsbL-0030_RLatLon0.09_PT001H.grib2 2026-04-30 14:40 594K
20260430T12Z_MSC_RDPS_RelativeHumidity_IsbL-0050_RLatLon0.09_PT001H.grib2 2026-04-30 14:40 309K
20260430T12Z_MSC_RDPS_RelativeHumidity_IsbL-0100_RLatLon0.09_PT001H.grib2 2026-04-30 14:40 276K
20260430T12Z_MSC_RDPS_RelativeHumidity_IsbL-0150_RLatLon0.09_PT001H.grib2 2026-04-30 14:40 398K
20260430T12Z_MSC_RDPS_RelativeHumidity_IsbL-0175_RLatLon0.09_PT001H.grib2 2026-04-30 14:40 468K
20260430T12Z_MSC_RDPS_RelativeHumidity_IsbL-0200_RLatLon0.09_PT001H.grib2 2026-04-30 14:40 546K
20260430T12Z_MSC_RDPS_RelativeHumidity_IsbL-0225_RLatLon0.09_PT001H.grib2 2026-04-30 14:40 617K
20260430T12Z_MSC_RDPS_RelativeHumidity_IsbL-0250_RLatLon0.09_PT001H.grib2 2026-04-30 14:40 687K
20260430T12Z_MSC_RDPS_RelativeHumidity_IsbL-0275_RLatLon0.09_PT001H.grib2 2026-04-30 14:40 711K
20260430T12Z_MSC_RDPS_RelativeHumidity_IsbL-0300_RLatLon0.09_PT001H.grib2 2026-04-30 14:40 752K
20260430T12Z_MSC_RDPS_RelativeHumidity_IsbL-0350_RLatLon0.09_PT001H.grib2 2026-04-30 14:40 770K
20260430T12Z_MSC_RDPS_RelativeHumidity_IsbL-0400_RLatLon0.09_PT001H.grib2 2026-04-30 14:40 782K
20260430T12Z_MSC_RDPS_RelativeHumidity_IsbL-0450_RLatLon0.09_PT001H.grib2 2026-04-30 14:40 784K
20260430T12Z_MSC_RDPS_RelativeHumidity_IsbL-0500_RLatLon0.09_PT001H.grib2 2026-04-30 14:40 797K
20260430T12Z_MSC_RDPS_RelativeHumidity_IsbL-0550_RLatLon0.09_PT001H.grib2 2026-04-30 14:40 808K
20260430T12Z_MSC_RDPS_RelativeHumidity_IsbL-0600_RLatLon0.09_PT001H.grib2 2026-04-30 14:40 830K
20260430T12Z_MSC_RDPS_RelativeHumidity_IsbL-0650_RLatLon0.09_PT001H.grib2 2026-04-30 14:40 847K
20260430T12Z_MSC_RDPS_RelativeHumidity_IsbL-0700_RLatLon0.09_PT001H.grib2 2026-04-30 14:40 868K
20260430T12Z_MSC_RDPS_RelativeHumidity_IsbL-0750_RLatLon0.09_PT001H.grib2 2026-04-30 14:40 908K
20260430T12Z_MSC_RDPS_RelativeHumidity_IsbL-0800_RLatLon0.09_PT001H.grib2 2026-04-30 14:40 965K
20260430T12Z_MSC_RDPS_RelativeHumidity_IsbL-0850_RLatLon0.09_PT001H.grib2 2026-04-30 14:40 1.0M
20260430T12Z_MSC_RDPS_RelativeHumidity_IsbL-0875_RLatLon0.09_PT001H.grib2 2026-04-30 14:40 1.0M
20260430T12Z_MSC_RDPS_RelativeHumidity_IsbL-0900_RLatLon0.09_PT001H.grib2 2026-04-30 14:40 1.0M
20260430T12Z_MSC_RDPS_RelativeHumidity_IsbL-0925_RLatLon0.09_PT001H.grib2 2026-04-30 14:40 1.0M
20260430T12Z_MSC_RDPS_RelativeHumidity_IsbL-0950_RLatLon0.09_PT001H.grib2 2026-04-30 14:40 1.0M
20260430T12Z_MSC_RDPS_RelativeHumidity_IsbL-0970_RLatLon0.09_PT001H.grib2 2026-04-30 14:40 1.0M
20260430T12Z_MSC_RDPS_RelativeHumidity_IsbL-0985_RLatLon0.09_PT001H.grib2 2026-04-30 14:40 1.0M
20260430T12Z_MSC_RDPS_RelativeHumidity_IsbL-1000_RLatLon0.09_PT001H.grib2 2026-04-30 14:40 1.0M
20260430T12Z_MSC_RDPS_RelativeHumidity_IsbL-1015_RLatLon0.09_PT001H.grib2 2026-04-30 14:40 1.0M
20260430T12Z_MSC_RDPS_Runoff-Accum_Sfc_RLatLon0.09_PT001H.grib2 2026-04-30 14:40 19K
20260430T12Z_MSC_RDPS_SWEATIndex_Sfc_RLatLon0.09_PT001H.grib2 2026-04-30 14:40 2.4M
20260430T12Z_MSC_RDPS_SeeingIndex_EAtm_RLatLon0.09_PT001H.grib2 2026-04-30 14:40 1.0M
20260430T12Z_MSC_RDPS_SensibleHeatNetFlux_Sfc_RLatLon0.09_PT001H.grib2 2026-04-30 14:40 313K
20260430T12Z_MSC_RDPS_ShowalterIndex_IsbL-0500_RLatLon0.09_PT001H.grib2 2026-04-30 14:40 2.6M
20260430T12Z_MSC_RDPS_SkyTransparencyIndex_EAtm_RLatLon0.09_PT001H.grib2 2026-04-30 14:40 677K
20260430T12Z_MSC_RDPS_Snow-Accum1h_Sfc_RLatLon0.09_PT001H.grib2 2026-04-30 14:40 409K
20260430T12Z_MSC_RDPS_Snow-Accum_Sfc_RLatLon0.09_PT001H.grib2 2026-04-30 14:40 532K
20260430T12Z_MSC_RDPS_SnowDensity_Sfc_RLatLon0.09_PT001H.grib2 2026-04-30 14:40 168K
20260430T12Z_MSC_RDPS_SnowDepth_Sfc_RLatLon0.09_PT001H.grib2 2026-04-30 14:40 668K
20260430T12Z_MSC_RDPS_SoilTemp_DBS-0to10cm_RLatLon0.09_PT001H.grib2 2026-04-30 14:40 184K
20260430T12Z_MSC_RDPS_SoilTemp_Sfc_RLatLon0.09_PT001H.grib2 2026-04-30 14:40 259K
20260430T12Z_MSC_RDPS_SoilVolumetricIceContent_Sfc_RLatLon0.09_PT001H.grib2 2026-04-30 14:40 165K
20260430T12Z_MSC_RDPS_SoilVolumetricWaterContent_DBS-0to10cm_RLatLon0.09_PT001H.grib2 2026-04-30 14:40 267K
20260430T12Z_MSC_RDPS_SoilVolumetricWaterContent_DBS-0to1cm_RLatLon0.09_PT001H.grib2 2026-04-30 14:40 330K
20260430T12Z_MSC_RDPS_SpecificHumidity_AGL-120m_RLatLon0.09_PT001H.grib2 2026-04-30 14:40 478K
20260430T12Z_MSC_RDPS_SpecificHumidity_AGL-2m_RLatLon0.09_PT001H.grib2 2026-04-30 14:40 638K
20260430T12Z_MSC_RDPS_SpecificHumidity_AGL-40m_RLatLon0.09_PT001H.grib2 2026-04-30 14:40 481K
20260430T12Z_MSC_RDPS_SpecificHumidity_AGL-80m_RLatLon0.09_PT001H.grib2 2026-04-30 14:40 479K
20260430T12Z_MSC_RDPS_SpecificHumidity_IsbL-0001_RLatLon0.09_PT001H.grib2 2026-04-30 14:40 382K
20260430T12Z_MSC_RDPS_SpecificHumidity_IsbL-0005_RLatLon0.09_PT001H.grib2 2026-04-30 14:40 352K
20260430T12Z_MSC_RDPS_SpecificHumidity_IsbL-0010_RLatLon0.09_PT001H.grib2 2026-04-30 14:40 388K
20260430T12Z_MSC_RDPS_SpecificHumidity_IsbL-0020_RLatLon0.09_PT001H.grib2 2026-04-30 14:40 379K
20260430T12Z_MSC_RDPS_SpecificHumidity_IsbL-0030_RLatLon0.09_PT001H.grib2 2026-04-30 14:40 365K
20260430T12Z_MSC_RDPS_SpecificHumidity_IsbL-0050_RLatLon0.09_PT001H.grib2 2026-04-30 14:40 453K
20260430T12Z_MSC_RDPS_SpecificHumidity_IsbL-0100_RLatLon0.09_PT001H.grib2 2026-04-30 14:40 343K
20260430T12Z_MSC_RDPS_SpecificHumidity_IsbL-0150_RLatLon0.09_PT001H.grib2 2026-04-30 14:40 441K
20260430T12Z_MSC_RDPS_SpecificHumidity_IsbL-0175_RLatLon0.09_PT001H.grib2 2026-04-30 14:40 526K
20260430T12Z_MSC_RDPS_SpecificHumidity_IsbL-0200_RLatLon0.09_PT001H.grib2 2026-04-30 14:40 444K
20260430T12Z_MSC_RDPS_SpecificHumidity_IsbL-0225_RLatLon0.09_PT001H.grib2 2026-04-30 14:40 452K
20260430T12Z_MSC_RDPS_SpecificHumidity_IsbL-0250_RLatLon0.09_PT001H.grib2 2026-04-30 14:40 511K
20260430T12Z_MSC_RDPS_SpecificHumidity_IsbL-0275_RLatLon0.09_PT001H.grib2 2026-04-30 14:40 469K
20260430T12Z_MSC_RDPS_SpecificHumidity_IsbL-0300_RLatLon0.09_PT001H.grib2 2026-04-30 14:40 443K
20260430T12Z_MSC_RDPS_SpecificHumidity_IsbL-0350_RLatLon0.09_PT001H.grib2 2026-04-30 14:40 531K
20260430T12Z_MSC_RDPS_SpecificHumidity_IsbL-0400_RLatLon0.09_PT001H.grib2 2026-04-30 14:40 511K
20260430T12Z_MSC_RDPS_SpecificHumidity_IsbL-0450_RLatLon0.09_PT001H.grib2 2026-04-30 14:40 562K
20260430T12Z_MSC_RDPS_SpecificHumidity_IsbL-0500_RLatLon0.09_PT001H.grib2 2026-04-30 14:40 494K
20260430T12Z_MSC_RDPS_SpecificHumidity_IsbL-0550_RLatLon0.09_PT001H.grib2 2026-04-30 14:40 563K
20260430T12Z_MSC_RDPS_SpecificHumidity_IsbL-0600_RLatLon0.09_PT001H.grib2 2026-04-30 14:40 617K
20260430T12Z_MSC_RDPS_SpecificHumidity_IsbL-0650_RLatLon0.09_PT001H.grib2 2026-04-30 14:40 537K
20260430T12Z_MSC_RDPS_SpecificHumidity_IsbL-0700_RLatLon0.09_PT001H.grib2 2026-04-30 14:40 576K
20260430T12Z_MSC_RDPS_SpecificHumidity_IsbL-0750_RLatLon0.09_PT001H.grib2 2026-04-30 14:40 627K
20260430T12Z_MSC_RDPS_SpecificHumidity_IsbL-0800_RLatLon0.09_PT001H.grib2 2026-04-30 14:40 703K
20260430T12Z_MSC_RDPS_SpecificHumidity_IsbL-0850_RLatLon0.09_PT001H.grib2 2026-04-30 14:40 776K
20260430T12Z_MSC_RDPS_SpecificHumidity_IsbL-0875_RLatLon0.09_PT001H.grib2 2026-04-30 14:40 801K
20260430T12Z_MSC_RDPS_SpecificHumidity_IsbL-0900_RLatLon0.09_PT001H.grib2 2026-04-30 14:40 815K
20260430T12Z_MSC_RDPS_SpecificHumidity_IsbL-0925_RLatLon0.09_PT001H.grib2 2026-04-30 14:40 820K
20260430T12Z_MSC_RDPS_SpecificHumidity_IsbL-0950_RLatLon0.09_PT001H.grib2 2026-04-30 14:40 825K
20260430T12Z_MSC_RDPS_SpecificHumidity_IsbL-0970_RLatLon0.09_PT001H.grib2 2026-04-30 14:40 818K
20260430T12Z_MSC_RDPS_SpecificHumidity_IsbL-0985_RLatLon0.09_PT001H.grib2 2026-04-30 14:40 666K
20260430T12Z_MSC_RDPS_SpecificHumidity_IsbL-1000_RLatLon0.09_PT001H.grib2 2026-04-30 14:40 656K
20260430T12Z_MSC_RDPS_SpecificHumidity_IsbL-1015_RLatLon0.09_PT001H.grib2 2026-04-30 14:40 645K
20260430T12Z_MSC_RDPS_SpecificHumidity_Sfc_RLatLon0.09_PT001H.grib2 2026-04-30 14:40 291K
20260430T12Z_MSC_RDPS_StormRelativeHelicity_EtaL-10000_RLatLon0.09_PT001H.grib2 2026-04-30 14:40 1.1M
20260430T12Z_MSC_RDPS_StormSeverityIndex_EtaL-10000_RLatLon0.09_PT001H.grib2 2026-04-30 14:40 1.1M
20260430T12Z_MSC_RDPS_Thickness_IsbL-0850to0700_RLatLon0.09_PT001H.grib2 2026-04-30 14:40 176K
20260430T12Z_MSC_RDPS_Thickness_IsbL-1000to0500_RLatLon0.09_PT001H.grib2 2026-04-30 14:40 198K
20260430T12Z_MSC_RDPS_Thickness_IsbL-1000to0850_RLatLon0.09_PT001H.grib2 2026-04-30 14:40 261K
20260430T12Z_MSC_RDPS_TotalCloudCover_Sfc_RLatLon0.09_PT001H.grib2 2026-04-30 14:40 655K
20260430T12Z_MSC_RDPS_TotalTotalsIndex_Sfc_RLatLon0.09_PT001H.grib2 2026-04-30 14:40 2.3M
20260430T12Z_MSC_RDPS_UVIndex-ClearSky_Sfc_RLatLon0.09_PT001H.grib2 2026-04-30 14:40 191K
20260430T12Z_MSC_RDPS_UVIndex_Sfc_RLatLon0.09_PT001H.grib2 2026-04-30 14:40 402K
20260430T12Z_MSC_RDPS_UpwardLongwaveRadiationFlux_NTAtm_RLatLon0.09_PT001H.grib2 2026-04-30 14:40 484K
20260430T12Z_MSC_RDPS_UpwardShortwaveRadiationFlux_NTAtm_RLatLon0.09_PT001H.grib2 2026-04-30 14:40 349K
20260430T12Z_MSC_RDPS_VerticalVelocity_IsbL-0250_RLatLon0.09_PT001H.grib2 2026-04-30 14:40 546K
20260430T12Z_MSC_RDPS_VerticalVelocity_IsbL-0500_RLatLon0.09_PT001H.grib2 2026-04-30 14:40 540K
20260430T12Z_MSC_RDPS_VerticalVelocity_IsbL-0700_RLatLon0.09_PT001H.grib2 2026-04-30 14:40 580K
20260430T12Z_MSC_RDPS_VerticalVelocity_IsbL-0850_RLatLon0.09_PT001H.grib2 2026-04-30 14:40 679K
20260430T12Z_MSC_RDPS_VerticalWindShear_EtaL-6500_RLatLon0.09_PT001H.grib2 2026-04-30 14:40 1.2M
20260430T12Z_MSC_RDPS_WindChill_Sfc_RLatLon0.09_PT001H.grib2 2026-04-30 14:40 1.1M
20260430T12Z_MSC_RDPS_WindDir_AGL-10m_RLatLon0.09_PT001H.grib2 2026-04-30 14:40 1.0M
20260430T12Z_MSC_RDPS_WindDir_AGL-120m_RLatLon0.09_PT001H.grib2 2026-04-30 14:40 615K
20260430T12Z_MSC_RDPS_WindDir_AGL-40m_RLatLon0.09_PT001H.grib2 2026-04-30 14:40 643K
20260430T12Z_MSC_RDPS_WindDir_AGL-80m_RLatLon0.09_PT001H.grib2 2026-04-30 14:40 626K
20260430T12Z_MSC_RDPS_WindDir_IsbL-0001_RLatLon0.09_PT001H.grib2 2026-04-30 14:40 301K
20260430T12Z_MSC_RDPS_WindDir_IsbL-0005_RLatLon0.09_PT001H.grib2 2026-04-30 14:40 351K
20260430T12Z_MSC_RDPS_WindDir_IsbL-0010_RLatLon0.09_PT001H.grib2 2026-04-30 14:40 359K
20260430T12Z_MSC_RDPS_WindDir_IsbL-0020_RLatLon0.09_PT001H.grib2 2026-04-30 14:40 384K
20260430T12Z_MSC_RDPS_WindDir_IsbL-0030_RLatLon0.09_PT001H.grib2 2026-04-30 14:40 398K
20260430T12Z_MSC_RDPS_WindDir_IsbL-0050_RLatLon0.09_PT001H.grib2 2026-04-30 14:40 409K
20260430T12Z_MSC_RDPS_WindDir_IsbL-0100_RLatLon0.09_PT001H.grib2 2026-04-30 14:40 423K
20260430T12Z_MSC_RDPS_WindDir_IsbL-0150_RLatLon0.09_PT001H.grib2 2026-04-30 14:40 416K
20260430T12Z_MSC_RDPS_WindDir_IsbL-0175_RLatLon0.09_PT001H.grib2 2026-04-30 14:40 436K
20260430T12Z_MSC_RDPS_WindDir_IsbL-0200_RLatLon0.09_PT001H.grib2 2026-04-30 14:40 446K
20260430T12Z_MSC_RDPS_WindDir_IsbL-0225_RLatLon0.09_PT001H.grib2 2026-04-30 14:40 455K
20260430T12Z_MSC_RDPS_WindDir_IsbL-0250_RLatLon0.09_PT001H.grib2 2026-04-30 14:40 457K
20260430T12Z_MSC_RDPS_WindDir_IsbL-0275_RLatLon0.09_PT001H.grib2 2026-04-30 14:40 480K
20260430T12Z_MSC_RDPS_WindDir_IsbL-0300_RLatLon0.09_PT001H.grib2 2026-04-30 14:40 476K
20260430T12Z_MSC_RDPS_WindDir_IsbL-0350_RLatLon0.09_PT001H.grib2 2026-04-30 14:40 492K
20260430T12Z_MSC_RDPS_WindDir_IsbL-0400_RLatLon0.09_PT001H.grib2 2026-04-30 14:40 503K
20260430T12Z_MSC_RDPS_WindDir_IsbL-0450_RLatLon0.09_PT001H.grib2 2026-04-30 14:40 514K
20260430T12Z_MSC_RDPS_WindDir_IsbL-0500_RLatLon0.09_PT001H.grib2 2026-04-30 14:40 529K
20260430T12Z_MSC_RDPS_WindDir_IsbL-0550_RLatLon0.09_PT001H.grib2 2026-04-30 14:40 548K
20260430T12Z_MSC_RDPS_WindDir_IsbL-0600_RLatLon0.09_PT001H.grib2 2026-04-30 14:40 580K
20260430T12Z_MSC_RDPS_WindDir_IsbL-0650_RLatLon0.09_PT001H.grib2 2026-04-30 14:40 632K
20260430T12Z_MSC_RDPS_WindDir_IsbL-0700_RLatLon0.09_PT001H.grib2 2026-04-30 14:40 682K
20260430T12Z_MSC_RDPS_WindDir_IsbL-0750_RLatLon0.09_PT001H.grib2 2026-04-30 14:40 731K
20260430T12Z_MSC_RDPS_WindDir_IsbL-0800_RLatLon0.09_PT001H.grib2 2026-04-30 14:40 791K
20260430T12Z_MSC_RDPS_WindDir_IsbL-0850_RLatLon0.09_PT001H.grib2 2026-04-30 14:40 864K
20260430T12Z_MSC_RDPS_WindDir_IsbL-0875_RLatLon0.09_PT001H.grib2 2026-04-30 14:40 891K
20260430T12Z_MSC_RDPS_WindDir_IsbL-0900_RLatLon0.09_PT001H.grib2 2026-04-30 14:40 904K
20260430T12Z_MSC_RDPS_WindDir_IsbL-0925_RLatLon0.09_PT001H.grib2 2026-04-30 14:40 913K
20260430T12Z_MSC_RDPS_WindDir_IsbL-0950_RLatLon0.09_PT001H.grib2 2026-04-30 14:40 919K
20260430T12Z_MSC_RDPS_WindDir_IsbL-0970_RLatLon0.09_PT001H.grib2 2026-04-30 14:40 928K
20260430T12Z_MSC_RDPS_WindDir_IsbL-0985_RLatLon0.09_PT001H.grib2 2026-04-30 14:40 938K
20260430T12Z_MSC_RDPS_WindDir_IsbL-1000_RLatLon0.09_PT001H.grib2 2026-04-30 14:40 951K
20260430T12Z_MSC_RDPS_WindDir_IsbL-1015_RLatLon0.09_PT001H.grib2 2026-04-30 14:40 968K
20260430T12Z_MSC_RDPS_WindGust-Max_AGL-10m_RLatLon0.09_PT001H.grib2 2026-04-30 14:40 1.0M
20260430T12Z_MSC_RDPS_WindGust-Min_AGL-10m_RLatLon0.09_PT001H.grib2 2026-04-30 14:40 962K
20260430T12Z_MSC_RDPS_WindGust_AGL-10m_RLatLon0.09_PT001H.grib2 2026-04-30 14:40 1.0M
20260430T12Z_MSC_RDPS_WindSpeed_AGL-10m_RLatLon0.09_PT001H.grib2 2026-04-30 14:40 831K
20260430T12Z_MSC_RDPS_WindSpeed_AGL-120m_RLatLon0.09_PT001H.grib2 2026-04-30 14:40 534K
20260430T12Z_MSC_RDPS_WindSpeed_AGL-40m_RLatLon0.09_PT001H.grib2 2026-04-30 14:40 534K
20260430T12Z_MSC_RDPS_WindSpeed_AGL-80m_RLatLon0.09_PT001H.grib2 2026-04-30 14:40 534K
20260430T12Z_MSC_RDPS_WindSpeed_IsbL-0001_RLatLon0.09_PT001H.grib2 2026-04-30 14:40 324K
20260430T12Z_MSC_RDPS_WindSpeed_IsbL-0005_RLatLon0.09_PT001H.grib2 2026-04-30 14:40 281K
20260430T12Z_MSC_RDPS_WindSpeed_IsbL-0010_RLatLon0.09_PT001H.grib2 2026-04-30 14:40 379K
20260430T12Z_MSC_RDPS_WindSpeed_IsbL-0020_RLatLon0.09_PT001H.grib2 2026-04-30 14:40 303K
20260430T12Z_MSC_RDPS_WindSpeed_IsbL-0030_RLatLon0.09_PT001H.grib2 2026-04-30 14:40 305K
20260430T12Z_MSC_RDPS_WindSpeed_IsbL-0050_RLatLon0.09_PT001H.grib2 2026-04-30 14:40 330K
20260430T12Z_MSC_RDPS_WindSpeed_IsbL-0100_RLatLon0.09_PT001H.grib2 2026-04-30 14:40 458K
20260430T12Z_MSC_RDPS_WindSpeed_IsbL-0150_RLatLon0.09_PT001H.grib2 2026-04-30 14:40 373K
20260430T12Z_MSC_RDPS_WindSpeed_IsbL-0175_RLatLon0.09_PT001H.grib2 2026-04-30 14:40 421K
20260430T12Z_MSC_RDPS_WindSpeed_IsbL-0200_RLatLon0.09_PT001H.grib2 2026-04-30 14:40 436K
20260430T12Z_MSC_RDPS_WindSpeed_IsbL-0225_RLatLon0.09_PT001H.grib2 2026-04-30 14:40 443K
20260430T12Z_MSC_RDPS_WindSpeed_IsbL-0250_RLatLon0.09_PT001H.grib2 2026-04-30 14:40 449K
20260430T12Z_MSC_RDPS_WindSpeed_IsbL-0275_RLatLon0.09_PT001H.grib2 2026-04-30 14:40 466K
20260430T12Z_MSC_RDPS_WindSpeed_IsbL-0300_RLatLon0.09_PT001H.grib2 2026-04-30 14:40 463K
20260430T12Z_MSC_RDPS_WindSpeed_IsbL-0350_RLatLon0.09_PT001H.grib2 2026-04-30 14:40 474K
20260430T12Z_MSC_RDPS_WindSpeed_IsbL-0400_RLatLon0.09_PT001H.grib2 2026-04-30 14:40 458K
20260430T12Z_MSC_RDPS_WindSpeed_IsbL-0450_RLatLon0.09_PT001H.grib2 2026-04-30 14:40 457K
20260430T12Z_MSC_RDPS_WindSpeed_IsbL-0500_RLatLon0.09_PT001H.grib2 2026-04-30 14:40 457K
20260430T12Z_MSC_RDPS_WindSpeed_IsbL-0550_RLatLon0.09_PT001H.grib2 2026-04-30 14:40 457K
20260430T12Z_MSC_RDPS_WindSpeed_IsbL-0600_RLatLon0.09_PT001H.grib2 2026-04-30 14:40 582K
20260430T12Z_MSC_RDPS_WindSpeed_IsbL-0650_RLatLon0.09_PT001H.grib2 2026-04-30 14:40 603K
20260430T12Z_MSC_RDPS_WindSpeed_IsbL-0700_RLatLon0.09_PT001H.grib2 2026-04-30 14:40 629K
20260430T12Z_MSC_RDPS_WindSpeed_IsbL-0750_RLatLon0.09_PT001H.grib2 2026-04-30 14:40 703K
20260430T12Z_MSC_RDPS_WindSpeed_IsbL-0800_RLatLon0.09_PT001H.grib2 2026-04-30 14:40 747K
20260430T12Z_MSC_RDPS_WindSpeed_IsbL-0850_RLatLon0.09_PT001H.grib2 2026-04-30 14:40 802K
20260430T12Z_MSC_RDPS_WindSpeed_IsbL-0875_RLatLon0.09_PT001H.grib2 2026-04-30 14:40 821K
20260430T12Z_MSC_RDPS_WindSpeed_IsbL-0900_RLatLon0.09_PT001H.grib2 2026-04-30 14:40 835K
20260430T12Z_MSC_RDPS_WindSpeed_IsbL-0925_RLatLon0.09_PT001H.grib2 2026-04-30 14:40 848K
20260430T12Z_MSC_RDPS_WindSpeed_IsbL-0950_RLatLon0.09_PT001H.grib2 2026-04-30 14:40 847K
20260430T12Z_MSC_RDPS_WindSpeed_IsbL-0970_RLatLon0.09_PT001H.grib2 2026-04-30 14:40 848K
20260430T12Z_MSC_RDPS_WindSpeed_IsbL-0985_RLatLon0.09_PT001H.grib2 2026-04-30 14:40 842K
20260430T12Z_MSC_RDPS_WindSpeed_IsbL-1000_RLatLon0.09_PT001H.grib2 2026-04-30 14:40 838K
20260430T12Z_MSC_RDPS_WindSpeed_IsbL-1015_RLatLon0.09_PT001H.grib2 2026-04-30 14:40 829K
20260430T12Z_MSC_RDPS_WindU_AGL-10m_RLatLon0.09_PT001H.grib2 2026-04-30 14:40 426K
20260430T12Z_MSC_RDPS_WindU_AGL-120m_RLatLon0.09_PT001H.grib2 2026-04-30 14:40 529K
20260430T12Z_MSC_RDPS_WindU_AGL-40m_RLatLon0.09_PT001H.grib2 2026-04-30 14:40 532K
20260430T12Z_MSC_RDPS_WindU_AGL-80m_RLatLon0.09_PT001H.grib2 2026-04-30 14:40 531K
20260430T12Z_MSC_RDPS_WindU_IsbL-0001_RLatLon0.09_PT001H.grib2 2026-04-30 14:40 286K
20260430T12Z_MSC_RDPS_WindU_IsbL-0005_RLatLon0.09_PT001H.grib2 2026-04-30 14:40 318K
20260430T12Z_MSC_RDPS_WindU_IsbL-0010_RLatLon0.09_PT001H.grib2 2026-04-30 14:40 282K
20260430T12Z_MSC_RDPS_WindU_IsbL-0020_RLatLon0.09_PT001H.grib2 2026-04-30 14:40 335K
20260430T12Z_MSC_RDPS_WindU_IsbL-0030_RLatLon0.09_PT001H.grib2 2026-04-30 14:40 297K
20260430T12Z_MSC_RDPS_WindU_IsbL-0050_RLatLon0.09_PT001H.grib2 2026-04-30 14:40 322K
20260430T12Z_MSC_RDPS_WindU_IsbL-0100_RLatLon0.09_PT001H.grib2 2026-04-30 14:40 415K
20260430T12Z_MSC_RDPS_WindU_IsbL-0150_RLatLon0.09_PT001H.grib2 2026-04-30 14:40 390K
20260430T12Z_MSC_RDPS_WindU_IsbL-0175_RLatLon0.09_PT001H.grib2 2026-04-30 14:40 414K
20260430T12Z_MSC_RDPS_WindU_IsbL-0200_RLatLon0.09_PT001H.grib2 2026-04-30 14:40 332K
20260430T12Z_MSC_RDPS_WindU_IsbL-0225_RLatLon0.09_PT001H.grib2 2026-04-30 14:40 337K
20260430T12Z_MSC_RDPS_WindU_IsbL-0250_RLatLon0.09_PT001H.grib2 2026-04-30 14:40 340K
20260430T12Z_MSC_RDPS_WindU_IsbL-0275_RLatLon0.09_PT001H.grib2 2026-04-30 14:40 355K
20260430T12Z_MSC_RDPS_WindU_IsbL-0300_RLatLon0.09_PT001H.grib2 2026-04-30 14:40 350K
20260430T12Z_MSC_RDPS_WindU_IsbL-0350_RLatLon0.09_PT001H.grib2 2026-04-30 14:40 461K
20260430T12Z_MSC_RDPS_WindU_IsbL-0400_RLatLon0.09_PT001H.grib2 2026-04-30 14:40 464K
20260430T12Z_MSC_RDPS_WindU_IsbL-0450_RLatLon0.09_PT001H.grib2 2026-04-30 14:40 462K
20260430T12Z_MSC_RDPS_WindU_IsbL-0500_RLatLon0.09_PT001H.grib2 2026-04-30 14:40 463K
20260430T12Z_MSC_RDPS_WindU_IsbL-0550_RLatLon0.09_PT001H.grib2 2026-04-30 14:40 463K
20260430T12Z_MSC_RDPS_WindU_IsbL-0600_RLatLon0.09_PT001H.grib2 2026-04-30 14:40 453K
20260430T12Z_MSC_RDPS_WindU_IsbL-0650_RLatLon0.09_PT001H.grib2 2026-04-30 14:40 472K
20260430T12Z_MSC_RDPS_WindU_IsbL-0700_RLatLon0.09_PT001H.grib2 2026-04-30 14:40 497K
20260430T12Z_MSC_RDPS_WindU_IsbL-0750_RLatLon0.09_PT001H.grib2 2026-04-30 14:40 649K
20260430T12Z_MSC_RDPS_WindU_IsbL-0800_RLatLon0.09_PT001H.grib2 2026-04-30 14:40 565K
20260430T12Z_MSC_RDPS_WindU_IsbL-0850_RLatLon0.09_PT001H.grib2 2026-04-30 14:40 746K
20260430T12Z_MSC_RDPS_WindU_IsbL-0875_RLatLon0.09_PT001H.grib2 2026-04-30 14:40 764K
20260430T12Z_MSC_RDPS_WindU_IsbL-0900_RLatLon0.09_PT001H.grib2 2026-04-30 14:40 776K
20260430T12Z_MSC_RDPS_WindU_IsbL-0925_RLatLon0.09_PT001H.grib2 2026-04-30 14:40 645K
20260430T12Z_MSC_RDPS_WindU_IsbL-0950_RLatLon0.09_PT001H.grib2 2026-04-30 14:40 645K
20260430T12Z_MSC_RDPS_WindU_IsbL-0970_RLatLon0.09_PT001H.grib2 2026-04-30 14:40 784K
20260430T12Z_MSC_RDPS_WindU_IsbL-0985_RLatLon0.09_PT001H.grib2 2026-04-30 14:40 780K
20260430T12Z_MSC_RDPS_WindU_IsbL-1000_RLatLon0.09_PT001H.grib2 2026-04-30 14:40 776K
20260430T12Z_MSC_RDPS_WindU_IsbL-1015_RLatLon0.09_PT001H.grib2 2026-04-30 14:40 816K
20260430T12Z_MSC_RDPS_WindV_AGL-10m_RLatLon0.09_PT001H.grib2 2026-04-30 14:40 427K
20260430T12Z_MSC_RDPS_WindV_AGL-120m_RLatLon0.09_PT001H.grib2 2026-04-30 14:40 529K
20260430T12Z_MSC_RDPS_WindV_AGL-40m_RLatLon0.09_PT001H.grib2 2026-04-30 14:40 530K
20260430T12Z_MSC_RDPS_WindV_AGL-80m_RLatLon0.09_PT001H.grib2 2026-04-30 14:40 530K
20260430T12Z_MSC_RDPS_WindV_IsbL-0001_RLatLon0.09_PT001H.grib2 2026-04-30 14:40 238K
20260430T12Z_MSC_RDPS_WindV_IsbL-0005_RLatLon0.09_PT001H.grib2 2026-04-30 14:40 273K
20260430T12Z_MSC_RDPS_WindV_IsbL-0010_RLatLon0.09_PT001H.grib2 2026-04-30 14:40 283K
20260430T12Z_MSC_RDPS_WindV_IsbL-0020_RLatLon0.09_PT001H.grib2 2026-04-30 14:40 295K
20260430T12Z_MSC_RDPS_WindV_IsbL-0030_RLatLon0.09_PT001H.grib2 2026-04-30 14:40 298K
20260430T12Z_MSC_RDPS_WindV_IsbL-0050_RLatLon0.09_PT001H.grib2 2026-04-30 14:40 322K
20260430T12Z_MSC_RDPS_WindV_IsbL-0100_RLatLon0.09_PT001H.grib2 2026-04-30 14:40 410K
20260430T12Z_MSC_RDPS_WindV_IsbL-0150_RLatLon0.09_PT001H.grib2 2026-04-30 14:40 389K
20260430T12Z_MSC_RDPS_WindV_IsbL-0175_RLatLon0.09_PT001H.grib2 2026-04-30 14:40 411K
20260430T12Z_MSC_RDPS_WindV_IsbL-0200_RLatLon0.09_PT001H.grib2 2026-04-30 14:40 329K
20260430T12Z_MSC_RDPS_WindV_IsbL-0225_RLatLon0.09_PT001H.grib2 2026-04-30 14:40 336K
20260430T12Z_MSC_RDPS_WindV_IsbL-0250_RLatLon0.09_PT001H.grib2 2026-04-30 14:40 339K
20260430T12Z_MSC_RDPS_WindV_IsbL-0275_RLatLon0.09_PT001H.grib2 2026-04-30 14:40 353K
20260430T12Z_MSC_RDPS_WindV_IsbL-0300_RLatLon0.09_PT001H.grib2 2026-04-30 14:40 349K
20260430T12Z_MSC_RDPS_WindV_IsbL-0350_RLatLon0.09_PT001H.grib2 2026-04-30 14:40 358K
20260430T12Z_MSC_RDPS_WindV_IsbL-0400_RLatLon0.09_PT001H.grib2 2026-04-30 14:40 461K
20260430T12Z_MSC_RDPS_WindV_IsbL-0450_RLatLon0.09_PT001H.grib2 2026-04-30 14:40 460K
20260430T12Z_MSC_RDPS_WindV_IsbL-0500_RLatLon0.09_PT001H.grib2 2026-04-30 14:40 461K
20260430T12Z_MSC_RDPS_WindV_IsbL-0550_RLatLon0.09_PT001H.grib2 2026-04-30 14:40 460K
20260430T12Z_MSC_RDPS_WindV_IsbL-0600_RLatLon0.09_PT001H.grib2 2026-04-30 14:40 451K
20260430T12Z_MSC_RDPS_WindV_IsbL-0650_RLatLon0.09_PT001H.grib2 2026-04-30 14:40 471K
20260430T12Z_MSC_RDPS_WindV_IsbL-0700_RLatLon0.09_PT001H.grib2 2026-04-30 14:40 493K
20260430T12Z_MSC_RDPS_WindV_IsbL-0750_RLatLon0.09_PT001H.grib2 2026-04-30 14:40 520K
20260430T12Z_MSC_RDPS_WindV_IsbL-0800_RLatLon0.09_PT001H.grib2 2026-04-30 14:40 687K
20260430T12Z_MSC_RDPS_WindV_IsbL-0850_RLatLon0.09_PT001H.grib2 2026-04-30 14:40 742K
20260430T12Z_MSC_RDPS_WindV_IsbL-0875_RLatLon0.09_PT001H.grib2 2026-04-30 14:40 761K
20260430T12Z_MSC_RDPS_WindV_IsbL-0900_RLatLon0.09_PT001H.grib2 2026-04-30 14:40 774K
20260430T12Z_MSC_RDPS_WindV_IsbL-0925_RLatLon0.09_PT001H.grib2 2026-04-30 14:40 784K
20260430T12Z_MSC_RDPS_WindV_IsbL-0950_RLatLon0.09_PT001H.grib2 2026-04-30 14:40 785K
20260430T12Z_MSC_RDPS_WindV_IsbL-0970_RLatLon0.09_PT001H.grib2 2026-04-30 14:40 784K
20260430T12Z_MSC_RDPS_WindV_IsbL-0985_RLatLon0.09_PT001H.grib2 2026-04-30 14:40 826K
20260430T12Z_MSC_RDPS_WindV_IsbL-1000_RLatLon0.09_PT001H.grib2 2026-04-30 14:40 821K
20260430T12Z_MSC_RDPS_WindV_IsbL-1015_RLatLon0.09_PT001H.grib2 2026-04-30 14:40 815K